Torna al catalogo

STARLINK-32886

AttivoComunicazioniVLEO
NORAD 62807·PAYLOAD·🇺🇸 United States

Lanciato Jan 24, 2025 da Vandenberg Space Force Base

Loading…

Prossimi Passaggi (prossime 24 ore)

TLE

AggiornatoSource: CelesTrak SupGP

Epoca: Sep 14, 2026, 20:38 UTC

1 62807C 25018B   26257.86020833 -.00053559  00000+0 -15817-2 0  2570
2 62807  53.1569 147.7955 0001062  96.1611 325.4095 15.34430938    14

Traccia STARLINK-32886 in tempo reale con AllMySat

Download on the App Store